KUIPER-00178

导读 | 豆包AI

KUIPER-00178是亚马逊柯伊柏(Kuiper)低轨互联网卫星星座的组网卫星,由法国于2026年2月12日发射升空。柯伊柏星座计划总计部署超3200颗卫星,目标构建全球卫星互联网服务,按要求需在2026年7月前完成半数卫星发射。该卫星入轨后将助力星座组网推进,为后续实现全球宽带覆盖奠定基础,是星座部署进程中的重要组成单元。

Basic Information
目录编号:
67767
目录名称:
KUIPER-00178
国际标识:
2026-030D
轨道中心:
EARTH
卫星名称:
KUIPER-00178
卫星全名:
KUIPER-00178
卫星状态:
在轨 (已飞行102 天)
发射日期:
2026-02-12 UTC
国别 :
美国 (US)
星等 :
--
Orbit Information
数据来源 国际轨道数据
星历时间: 2026-05-24T13:27:43+0800
23小时前
查看轨道信息
半长轴: 7018.687km
偏心率: 0.0000377
轨道倾角: 51.899°
近地点辐角 101.337°
升交点赤经 238.483°
平近点角 258.763°
近地点: 640.285km
远地点: 640.815km
周期: 97.531分钟
每日圈数: 14.764508
Detailed Information
使用方式:
暂无
2D Orbit Map
3D Orbit Map
Orbit Altitude Analysis Chart
Orbit Inclination Analysis Chart
Orbit Comprehensive Analysis Chart
View Comprehensive Chart